Location: Ailly
(50.0793°N, 1.9944°E)
Time: 05:32:39
(UTC+00:00)

Sich 1 - Pass Details

Date: 15 January 2026
Orbit: 572 x 598 km, 82.5° (Epoch: 17 February)

Event Time Altitude Azimuth Distance (km) Brightness Sun altitude
Rises 06:10:29 0° 220° (SW) 2,803 6.2 -14.6°
Reaches altitude 10° 06:12:58 10° 233° (SW) 1,903 5.2 -14.2°
Maximum altitude 06:16:30 26° 290° (WNW) 1,172 3.9 -13.7°
Drops below altitude 10° 06:20:02 10° 348° (NNW) 1,903 5.3 -13.2°
Sets 06:22:31 0° 1° (N) 2,803 6.3 -12.8°
